Theta_e
312 313 312 311 309 308 307 305 303 301 301 301 301 300 299 299 297 296 296 295 295 294 294 298 303 304 300 302 301 303 304 304 305 305 304 304 304 304 303 310 307 310 309 308 309 311 313
312 312 311 310 308 306 306 306 304 301 301 301 300 299 298 297 297 296 296 295 294 294 295 300 303 304 303 299 301 304 305 304 303 304 305 304 304 304 304 303 303 306 306 309 310 310 311
312 311 310 308 307 306 306 305 304 302 301 301 299 298 298 297 296 296 295 294 293 295 298 302 303 303 303 299 304 305 304 304 304 303 304 305 304 304 303 304 304 305 304 304 307 311 312
311 311 309 307 306 306 306 305 303 302 300 299 298 298 297 296 296 295 294 294 299 302 301 302 300 304 302 304 306 306 304 303 306 305 305 305 303 302 303 303 304 304 304 304 305 308 311
311 310 308 306 305 305 304 303 302 300 300 298 298 298 297 296 295 293 297 302 303 303 303 304 302 304 305 304 307 303 303 303 304 305 305 306 304 303 306 305 304 303 304 304 304 306 309
310 309 307 306 305 304 302 302 301 299 298 298 298 298 297 295 293 296 302 302 304 304 305 304 303 303 303 303 303 303 304 304 303 304 306 304 301 301 302 304 306 303 303 303 303 304 307
309 307 307 305 303 302 302 301 299 298 298 298 299 298 296 294 294 299 302 301 299 299 300 299 302 301 301 301 302 303 304 304 304 306 306 305 303 304 304 303 305 306 305 304 304 304 306
308 307 305 303 301 302 301 301 300 299 299 299 299 296 294 293 297 302 302 301 301 300 300 301 301 301 301 302 302 302 305 305 305 306 304 306 307 306 306 305 303 303 306 308 306 304 305
306 305 303 301 301 301 301 301 300 299 299 298 296 294 293 294 299 302 302 302 302 302 300 302 304 303 303 303 303 304 306 306 303 303 305 307 307 305 306 306 306 305 304 305 308 304 304
303 302 301 301 301 301 301 300 299 299 298 297 296 294 295 296 301 302 301 301 302 303 301 308 305 305 303 302 305 304 306 306 303 304 304 305 304 304 305 306 308 308 304 305 307 305 306
301 301 301 300 300 300 300 300 299 299 297 297 295 295 295 296 300 303 302 302 303 302 305 305 302 302 301 304 303 305 305 303 306 305 303 306 307 309 310 310 311 309 306 305 307 305 304
301 300 299 299 300 300 299 299 298 297 297 296 295 294 295 301 301 302 302 302 304 304 305 302 300 301 301 303 303 304 307 307 305 305 304 305 305 306 307 309 310 311 307 308 306 306 307
300 299 299 300 299 298 297 297 297 297 295 295 294 294 295 300 302 301 302 303 305 304 301 300 299 302 302 303 304 306 309 307 308 310 309 310 310 311 312 313 312 311 309 309 309 311 317
299 299 299 298 299 298 298 297 297 296 295 295 295 295 296 300 302 302 303 302 306 301 299 300 301 302 303 303 303 307 309 309 306 308 311 312 311 311 310 313 315 313 309 307 313 318 316
298 297 297 298 298 297 297 297 297 294 296 295 295 299 300 302 302 303 301 303 301 299 300 301 302 303 303 303 301 305 305 308 307 307 312 313 312 310 309 311 315 309 307 306 315 318 315
298 297 297 298 298 297 296 296 295 296 295 295 298 301 302 303 302 304 299 306 301 301 301 301 303 304 303 303 302 297 305 305 307 305 309 311 314 312 312 314 314 312 309 315 317 320 319
297 296 297 297 297 297 296 296 295 295 295 296 300 301 302 300 303 301 299 303 302 300 301 302 302 303 303 305 304 301 306 305 303 305 308 310 313 313 313 316 315 314 313 315 317 318 322
298 298 298 298 297 296 297 295 296 295 296 299 300 302 302 301 300 298 299 304 302 302 302 302 302 303 305 305 303 305 306 307 303 303 306 309 315 315 312 312 313 314 316 316 316 321 319
298 297 297 297 296 297 297 295 296 296 296 300 301 300 301 302 300 301 304 303 302 302 301 302 302 305 304 303 303 304 305 305 303 303 304 308 312 313 310 311 311 313 313 314 316 316 318
296 296 296 296 295 296 296 296 296 297 297 299 299 299 299 299 299 300 300 302 302 303 302 302 303 304 301 301 302 302 305 304 303 303 309 307 311 313 313 312 312 314 313 314 316 317 316
297 296 295 296 295 295 296 295 296 297 297 300 295 299 299 296 297 298 299 300 301 303 301 300 301 301 300 300 301 304 303 303 302 304 304 305 309 310 311 312 315 316 316 315 317 318 315
296 297 295 296 295 296 295 294 296 298 297 300 294 298 297 300 298 298 300 300 300 300 299 299 300 300 299 300 302 303 302 302 302 304 304 304 308 310 311 312 314 315 316 313 314 315 319
297 296 294 295 295 295 293 293 295 297 299 299 299 299 296 299 299 298 300 300 301 301 301 301 300 299 299 301 301 301 300 301 302 303 303 305 307 308 312 311 315 312 310 311 310 309 316
297 296 295 295 295 294 293 292 294 297 300 301 300 298 295 297 299 301 302 301 302 303 302 302 303 303 302 301 300 301 302 302 303 304 303 306 307 308 311 310 316 312 306 309 308 307 306
296 295 295 294 295 294 293 293 294 297 298 300 300 299 297 296 300 301 302 303 301 300 301 304 302 302 300 301 302 304 304 307 308 308 308 306 307 307 310 311 315 308 305 307 309 308 306
296 295 295 295 295 294 293 293 294 296 298 299 299 299 297 294 300 301 301 301 300 299 299 302 301 300 301 300 299 305 308 308 309 308 307 308 308 307 308 312 311 306 302 303 306 308 305
296 295 295 295 294 294 293 294 294 296 297 298 298 298 297 291 297 299 299 300 300 299 299 299 300 300 298 296 302 303 306 306 308 309 308 308 306 306 307 310 308 302 302 302 306 307 304
296 295 295 294 294 293 293 294 294 296 297 298 298 298 296 292 296 298 300 301 300 299 299 298 296 298 297 299 302 301 302 304 306 308 308 307 305 306 304 305 305 300 301 303 302 299 301
295 295 295 295 294 293 293 293 293 295 296 297 298 298 297 295 294 297 297 297 298 300 298 298 299 299 299 296 296 299 301 301 303 304 307 309 307 304 304 304 300 298 299 298 299 299 297
Wind_Speed
30 31 28 24 20 17 14 11 9 7 6 6 5 6 8 10 11 12 14 15 17 18 19 17 15 14 8 4 7 7 14 13 15 17 10 7 7 4 5 5 7 20 17 21 15 22 25
36 33 30 25 21 19 16 14 11 8 7 7 7 7 9 10 13 14 15 17 19 21 17 13 10 7 1 2 2 8 8 13 18 17 18 3 2 8 9 12 17 11 15 19 20 30 24
40 36 32 27 24 21 18 18 14 11 10 8 8 8 9 11 14 16 18 20 23 20 15 10 5 2 2 10 6 9 11 11 15 12 2 9 10 2 6 10 12 9 15 19 24 29 27
42 41 35 31 26 24 23 19 15 12 10 9 8 8 9 12 15 17 20 21 20 17 12 7 1 4 6 7 8 13 10 19 13 14 13 18 17 9 6 7 11 15 12 18 27 13 23
46 43 37 31 29 26 22 18 17 14 11 9 7 8 9 12 15 18 18 20 20 11 7 5 3 4 8 12 6 10 14 13 21 23 23 18 11 8 4 6 12 11 16 21 26 8 11
49 43 37 33 28 24 20 18 15 12 10 8 6 7 9 11 13 14 17 12 4 4 7 6 2 2 6 4 7 8 22 22 12 9 2 3 4 4 3 3 14 22 14 18 17 16 12
49 42 37 32 26 25 18 16 14 11 10 7 6 6 8 10 10 11 18 3 6 4 5 4 3 4 6 7 15 8 21 9 3 4 5 3 3 11 16 17 18 19 21 21 24 23 19
47 38 33 28 25 22 21 17 13 9 7 6 7 6 6 7 7 9 7 4 4 1 6 6 11 10 23 9 5 7 8 3 4 9 6 1 13 20 17 20 19 20 22 23 22 23 21
44 37 32 27 23 20 20 17 13 10 9 8 7 6 3 3 3 5 10 9 4 1 1 6 6 5 7 10 5 5 3 2 5 6 6 8 14 7 11 15 19 25 29 20 21 20 20
46 35 30 27 24 19 17 14 12 10 8 7 6 3 2 0 3 2 4 7 1 2 3 2 3 5 4 4 3 14 4 6 3 6 3 8 7 9 13 20 19 25 19 20 22 18 10
41 36 33 27 24 19 15 14 12 9 7 6 4 3 0 2 4 4 1 5 2 0 3 1 1 4 7 1 7 3 22 2 12 9 5 12 7 9 15 19 11 17 18 19 22 19 12
36 33 30 26 24 22 18 13 11 9 8 5 4 1 3 7 5 4 5 1 2 4 1 2 3 5 7 3 7 5 6 7 3 4 8 19 10 5 16 24 13 9 16 17 17 6 12
31 28 27 23 21 17 15 11 10 9 8 5 2 3 5 6 5 2 1 3 3 3 4 5 4 7 8 5 8 4 5 8 4 7 7 13 3 2 9 15 6 7 7 1 4 6 7
29 25 22 20 20 19 15 12 8 9 5 3 6 4 5 7 6 1 2 3 4 2 1 2 3 10 3 8 5 5 5 3 4 3 12 7 9 6 9 2 6 7 11 5 4 3 4
24 23 21 21 18 15 13 11 10 7 5 3 2 2 3 6 5 2 4 4 5 2 1 3 8 2 4 6 2 5 1 4 4 4 8 7 8 20 8 11 3 1 6 17 2 7 2
23 19 18 17 17 14 12 9 7 6 3 2 4 3 3 8 7 3 4 3 3 3 1 2 2 3 5 5 6 4 3 4 6 5 7 4 9 7 15 9 3 7 4 3 3 2 3
18 17 17 16 15 12 11 9 7 5 2 2 5 2 7 8 6 4 3 3 3 3 4 2 2 4 5 6 4 4 4 6 10 10 7 7 4 8 6 4 4 7 3 5 2 1 3
19 16 17 17 13 12 11 8 5 3 2 4 4 2 11 12 2 1 2 4 4 3 3 2 3 3 2 4 5 3 5 3 9 7 8 4 4 6 11 9 11 5 11 7 2 3 2
18 16 15 13 12 12 11 8 7 2 3 5 3 2 6 5 2 1 4 2 6 3 1 1 2 2 2 3 5 4 5 8 13 12 4 6 3 6 8 3 10 5 9 14 4 2 5
18 17 15 14 14 11 9 7 6 4 3 3 3 2 2 2 1 3 0 2 3 2 0 3 1 2 3 4 1 7 4 6 9 12 10 5 3 2 5 10 6 7 16 16 8 3 3
19 16 16 15 14 10 9 6 5 3 3 2 2 3 3 2 2 4 2 1 2 3 4 6 4 3 2 4 6 2 7 9 10 5 6 2 4 5 15 9 5 5 12 12 9 10 3
18 18 15 15 13 10 8 7 4 3 4 2 3 3 3 0 3 3 1 1 2 3 2 4 1 5 4 4 4 13 11 11 6 7 6 5 4 6 6 4 6 11 11 15 11 13 13
19 17 15 16 12 11 9 7 4 2 4 2 2 2 3 2 2 3 3 3 2 2 1 1 4 4 6 7 8 13 12 15 12 10 13 4 3 5 4 13 7 8 15 17 12 22 7
20 18 18 17 16 12 8 7 5 2 5 5 5 2 3 1 2 0 2 3 4 3 1 3 5 2 5 8 10 8 9 13 11 12 11 4 4 2 4 8 3 5 16 8 19 18 18
21 20 19 17 16 12 7 7 6 3 6 9 5 3 2 2 1 5 9 4 7 7 5 2 3 4 7 6 4 5 5 5 4 2 3 6 2 3 2 3 3 8 14 9 6 10 13
22 21 20 18 16 13 8 7 7 4 5 6 8 5 3 4 1 4 3 4 3 3 6 3 5 7 6 3 3 3 3 4 4 7 6 7 1 2 3 2 5 4 19 15 6 7 11
22 21 20 18 16 13 9 8 8 6 6 7 5 5 4 3 1 3 3 1 1 2 2 3 6 7 5 3 2 2 3 4 4 5 5 5 4 3 3 2 2 12 18 13 3 4 7
23 22 20 18 17 13 10 9 8 7 8 7 7 6 4 2 3 2 2 1 2 2 2 4 4 4 4 5 3 2 2 3 2 2 4 4 3 4 4 4 4 19 7 6 3 9 10
24 23 20 20 18 14 12 10 9 8 9 7 5 5 5 4 3 5 17 21 13 9 4 2 3 2 1 3 2 2 2 3 3 2 2 3 2 2 4 2 4 5 5 7 7 6 9
Wind_Direction
209 202 201 204 206 201 199 209 230 240 245 243 265 283 294 301 304 304 307 312 315 318 319 319 321 328 358 14 257 333 339 353 5 359 11 11 335 298 228 249 303 253 257 260 262 257 256
206 203 202 203 202 197 194 196 220 230 238 256 272 281 291 300 304 305 307 311 313 312 311 309 308 315 102 298 286 328 353 352 350 343 332 3 290 298 281 264 248 291 301 273 262 251 256
202 202 198 201 201 198 194 201 210 216 226 249 267 278 290 300 303 306 309 310 308 309 306 304 293 230 248 246 311 324 322 316 324 313 263 309 307 208 320 303 281 319 302 298 261 258 255
200 198 197 196 198 194 190 199 205 210 219 239 256 276 292 302 305 310 311 309 306 305 296 300 158 171 253 292 310 283 296 296 306 303 294 288 286 267 223 262 285 294 288 265 269 260 261
195 192 188 191 190 191 195 198 198 203 219 225 248 279 294 302 310 316 316 316 307 287 266 236 178 144 271 313 251 285 297 271 297 285 292 284 273 244 320 308 293 240 259 274 287 264 291
189 188 186 180 182 185 189 189 196 202 215 217 242 274 291 305 315 324 327 330 52 100 90 111 113 7 255 246 257 274 290 282 260 280 293 200 234 240 230 186 247 259 237 261 266 280 266
185 183 178 173 179 177 179 183 192 197 205 204 233 265 290 308 323 336 340 36 14 359 34 212 200 247 272 254 288 256 297 285 245 168 243 218 213 235 257 248 258 274 271 267 275 282 300
175 171 167 169 174 179 170 182 184 191 213 217 236 249 283 311 323 351 26 79 114 149 322 267 238 257 261 258 288 294 321 332 310 289 316 45 242 250 254 256 261 265 267 268 272 276 276
163 159 164 169 169 183 171 179 179 197 204 217 232 258 279 293 321 46 73 69 62 112 139 287 226 229 252 160 242 276 187 249 271 271 233 207 242 288 246 251 253 251 246 255 263 271 280
153 160 168 165 164 179 177 175 185 186 201 223 248 240 267 204 119 40 86 15 344 354 63 209 256 264 251 244 267 308 239 201 209 264 261 261 283 261 247 256 265 253 242 248 256 246 260
151 162 163 168 163 168 179 175 184 182 199 218 238 258 71 93 120 105 18 5 114 115 79 177 318 276 304 144 280 301 337 59 240 234 96 254 257 241 260 261 267 253 245 241 253 237 253
154 159 156 164 167 166 171 179 182 185 194 218 212 167 305 119 105 68 333 138 130 51 222 35 306 328 352 297 324 329 357 338 207 267 215 254 252 257 258 280 268 249 232 243 247 228 255
147 151 156 157 157 162 168 172 196 186 189 204 218 236 250 166 139 14 340 100 65 108 317 337 303 330 314 321 326 28 349 349 9 330 306 294 251 243 354 321 278 204 209 238 203 217 223
145 146 149 157 166 168 158 175 189 195 175 207 246 249 220 180 140 22 107 63 87 188 17 327 289 302 347 0 324 336 345 309 305 352 313 336 315 4 335 305 288 272 181 200 220 208 186
141 151 159 166 159 155 162 162 184 168 202 251 279 172 215 189 166 189 88 78 173 180 80 304 305 354 318 339 184 17 226 258 287 329 0 311 287 309 289 323 218 268 180 212 283 259 61
149 149 159 165 154 155 164 161 176 192 174 49 121 137 245 162 153 137 79 149 127 89 247 259 341 19 316 321 355 37 300 253 316 333 326 302 298 340 311 336 246 225 186 121 101 268 265
146 149 166 161 159 163 158 176 179 170 163 96 103 98 171 160 171 55 131 206 133 243 250 232 319 292 302 333 294 273 283 279 11 343 1 302 279 313 327 324 309 345 355 53 98 30 18
152 158 170 161 161 156 166 167 162 143 168 134 115 99 162 171 67 117 127 196 177 249 320 47 351 280 323 294 274 328 305 271 353 352 332 276 293 290 293 264 256 273 354 30 78 358 245
153 157 151 152 164 159 167 163 128 120 104 139 108 130 158 196 129 296 270 244 193 207 40 11 315 360 317 325 317 298 325 319 358 330 336 326 315 312 337 271 51 26 328 325 298 44 287
161 161 155 164 165 161 162 154 128 137 115 117 98 97 353 51 210 173 156 356 27 138 101 24 254 11 338 315 278 290 309 319 329 323 325 353 283 310 295 276 278 292 311 312 173 210 233
166 164 170 169 163 162 163 154 141 136 139 150 48 220 190 211 302 148 135 353 25 347 39 31 356 43 21 299 295 276 302 319 315 285 346 43 269 287 295 292 331 298 290 318 44 355 171
170 172 169 164 162 155 163 179 153 143 155 123 120 112 22 162 166 137 162 124 94 103 75 309 337 309 315 270 250 302 317 315 267 300 356 348 278 312 307 317 38 11 43 45 29 6 86
179 177 175 182 173 165 170 170 169 145 139 85 31 30 101 322 59 98 219 172 77 61 322 332 270 286 291 270 255 273 261 267 246 270 295 276 310 330 285 327 90 24 2 49 49 23 331
176 177 182 178 172 170 167 171 175 133 107 97 51 74 85 279 83 304 61 92 82 53 210 307 17 21 269 288 295 284 260 252 254 255 210 261 330 289 291 325 54 10 16 25 55 33 17
180 178 177 178 172 170 162 171 171 138 135 85 50 81 101 91 6 7 32 60 43 12 4 106 323 254 294 308 352 339 350 8 344 36 46 205 271 308 348 325 119 39 358 347 360 44 24
182 181 178 178 176 176 162 168 161 149 133 124 66 60 92 116 54 307 68 38 88 351 341 326 306 323 17 55 42 5 12 343 341 351 355 19 32 125 337 23 35 0 330 325 266 53 28
185 180 179 176 176 178 166 170 154 138 138 149 85 69 74 98 252 17 93 156 98 59 254 307 326 346 33 20 15 18 348 332 6 15 333 340 353 39 345 28 101 351 327 311 72 360 30
183 180 179 174 173 175 168 165 158 145 139 118 101 72 85 127 280 330 348 126 3 106 150 280 29 354 4 37 24 319 9 324 36 103 348 17 342 3 356 32 343 0 11 51 343 24 19
181 181 176 174 172 171 165 158 162 152 138 122 101 106 77 106 243 278 275 263 232 211 140 340 190 228 184 60 10 331 345 348 358 344 28 30 358 106 21 53 48 33 30 34 23 44 24